"2009-01-30 00:00:00",584996,8.83,350.1,5.25,0.912,3.69,100.2754,0.003,1.155,25.27,0,109.6,13.5,0.75,312.1
"2009-01-30 00:00:30",584997,6.993,358.1,8.22,1.113,3.998,100.2721,-0.006,1.169,25.2,0,109.6,13.5,0.75,320.1
"2009-01-30 00:01:00",584998,7.125,355.8,6.836,1.161,2.827,100.2684,-0.015,1.07,25.08,0,109.6,13.5,0.74,317.8
"2009-01-30 00:01:30",584999,6.979,350.9,4.752,1.297,1.986,100.2582,-0.041,1.058,25.1,0,109.6,13.5,0.71,312.9
"2009-01-30 00:02:00",585000,8.73,354,5.226,0.857,4.447,100.2611,-0.034,1.168,25.14,0,109.6,13.5,0.72,316.0
"2009-01-30 00:02:30",585001,8.75,354.5,4.149,1.032,4.86,100.2613,-0.033,1.162,25.25,0,109.6,13.5,0.72,316.5
"2009-01-30 00:03:00",585002,8.82,352.6,3.59,0.818,5.058,100.2613,-0.033,1.16,25.24,0,109.6,13.5,0.72,314.6
"2009-01-30 00:03:30",585003,9.25,357.1,3.818,1.106,5.019,100.2523,-0.056,1.144,25.43,0,109.6,13.5,0.70,319.1
"2009-01-30 00:04:00",585004,9.65,355.5,4.469,0.787,4.915,100.2416,-0.084,1.141,25.65,0,109.6,13.5,0.67,317.5
"2009-01-30 00:04:30",585005,8.34,354.9,4.103,0.655,4.898,100.2317,-0.109,1.143,25.67,0,109.6,13.5,0.64,316.9
"2009-01-30 00:05:00",585006,8.59,349.4,4.017,0.885,4.445,100.2334,-0.105,1.099,25.93,0,109.6,13.5,0.65,311.4
"2009-01-30 00:05:30",585007,9.52,348.1,4.026,0.668,4.454,100.2263,-0.123,1.101,26.13,0,109.6,13.51,0.63,310.1
"2009-01-30 00:06:00",585008,9.97,342.5,4.793,0.719,4.445,100.2042,-0.179,1.081,26.28,0,109.6,13.51,0.57,304.5
"2009-01-30 00:06:30",585009,9.7,339.3,2.935,0.879,4.3,100.2037,-0.18,1.068,26.38,0,109.6,13.52,0.57,301.3
"2009-01-30 00:07:00",585010,8.58,343.8,4.117,0.713,4.578,100.1991,-0.192,1.041,26.45,0,109.6,13.52,0.56,305.8
"2009-01-30 00:07:30",585011,8.82,347.5,4.53,0.887,4.518,100.1759,-0.251,1.024,26.61,0,109.6,13.52,0.50,309.5
"2009-01-30 00:08:00",585012,9.37,344.5,3.882,0.688,4.683,100.1697,-0.267,0.991,26.67,0,109.6,13.52,0.48,306.5
"2009-01-30 00:08:30",585013,9.93,344.4,4.3,0.833,4.513,100.1672,-0.273,0.967,26.72,0,109.6,13.52,0.48,306.4
"2009-01-30 00:09:00",585014,10.02,340.9,3.994,0.871,4.525,100.151,-0.314,0.971,26.84,0,109.6,13.52,0.44,302.9
"2009-01-30 00:09:30",585015,10.6,339.7,3.773,0.999,4.609,100.1372,-0.35,0.946,26.82,0,109.6,13.52,0.40,301.7
"2009-01-30 00:10:00",585016,10.18,340.1,3.777,0.818,4.842,100.1358,-0.353,0.922,26.87,0,109.6,13.52,0.40,302.1
"2009-01-30 00:10:30",585017,10.16,341.1,3.008,0.86,4.709,100.1358,-0.353,0.895,26.96,0,109.6,13.52,0.40,303.1
"2009-01-30 00:11:00",585018,10.4,342.6,3.245,0.963,4.86,100.1202,-0.393,0.886,27.06,0,109.6,13.52,0.36,304.6
"2009-01-30 00:11:30",585019,10.58,341.6,4.602,0.791,4.825,100.1018,-0.44,0.868,27.13,0,109.6,13.53,0.31,303.6
"2009-01-30 00:12:00",585020,10.58,340.3,3.76,0.727,4.88,100.1018,-0.44,0.846,27.19,0,109.6,13.53,0.31,302.3
"2009-01-30 00:12:30",585021,10.15,338.5,3.238,0.83,4.89,100.1018,-0.44,0.833,27.23,0,109.6,13.53,0.31,300.5
"2009-01-30 00:13:00",585022,9.95,343.4,4.267,0.87,4.951,100.1001,-0.444,0.811,27.3,0,109.6,13.53,0.31,305.4
"2009-01-30 00:13:30",585023,10.47,344,4.09,0.757,4.915,100.0832,-0.488,0.798,27.39,0,109.6,13.53,0.26,306.0
"2009-01-30 00:14:00",585024,10.64,345.9,4.1,0.667,5.032,100.0699,-0.521,0.79,27.37,0,109.6,13.53,0.23,307.9
"2009-01-30 00:14:30",585025,11.03,344.4,4.079,0.874,4.956,100.0704,-0.52,0.783,27.47,0,109.6,13.53,0.23,306.4
"2009-01-30 00:15:00",585026,10.71,346.6,3.477,0.839,4.883,100.0727,-0.514,0.744,27.5,0,109.5,13.53,0.24,308.6
"2009-01-30 00:15:30",585027,10.84,347.7,3.146,0.765,4.919,100.0642,-0.536,0.725,27.59,0,109.5,13.53,0.21,309.7
"2009-01-30 00:16:00",585028,11.44,345.6,3.579,0.734,5.056,100.0597,-0.547,0.717,27.61,0,109.5,13.53,0.20,307.6
"2009-01-30 00:16:30",585029,11.09,345.5,4.458,0.816,5.051,100.0637,-0.537,0.715,27.69,0,109.5,13.53,0.21,307.5
"2009-01-30 00:17:00",585030,11.26,351.2,3.765,0.768,5.298,100.0597,-0.547,0.718,27.64,0,109.5,13.53,0.20,313.2
"2009-01-30 00:17:30",585031,10.77,352.1,3.874,0.722,5.348,100.0549,-0.56,0.704,27.64,0,109.5,13.53,0.19,314.1
"2009-01-30 00:18:00",585032,11.71,348.5,4.077,0.638,5.524,100.0571,-0.554,0.694,27.55,0,109.5,13.53,0.20,310.5
"2009-01-30 00:18:30",585033,11.67,348.6,3.179,0.827,5.319,100.069,-0.524,0.707,27.47,0,109.5,13.54,0.23,310.6
"2009-01-30 00:19:00",585034,12.17,347.5,2.428,0.884,5.315,100.0736,-0.512,0.703,27.46,0,109.5,13.54,0.24,309.5
"2009-01-30 00:19:30",585035,11.17,351.7,3.223,0.85,5.3,100.0874,-0.477,0.695,27.54,0,109.5,13.54,0.27,313.7
"2009-01-30 00:20:00",585036,11.27,349.9,4.112,0.803,5.532,100.0925,-0.464,0.713,27.55,0,109.5,13.54,0.29,311.9
"2009-01-30 00:20:30",585037,11.28,349,3.692,0.727,5.53,100.0931,-0.462,0.734,27.47,0,109.5,13.54,0.29,311.0
"2009-01-30 00:21:00",585038,11.1,350.4,3.396,0.863,5.349,100.0948,-0.458,0.729,27.52,0,109.5,13.54,0.29,312.4
"2009-01-30 00:21:30",585039,10.91,348.9,4.184,0.888,5.24,100.0953,-0.456,0.741,27.64,0,109.5,13.54,0.29,310.9
"2009-01-30 00:22:00",585040,10.95,349.1,3.483,0.813,5.415,100.0979,-0.45,0.747,27.6,0,109.5,13.54,0.30,311.1
"2009-01-30 00:22:30",585041,10.91,349.7,3.424,0.832,5.329,100.0985,-0.449,0.741,27.53,0,109.5,13.54,0.30,311.7
"2009-01-30 00:23:00",585042,10.49,346.2,3.406,0.862,5.244,100.0979,-0.45,0.749,27.49,0,109.5,13.54,0.30,308.2
"2009-01-30 00:23:30",585043,10.26,346,3.543,0.833,5.176,100.1004,-0.443,0.757,27.43,0,109.5,13.54,0.31,308.0
"2009-01-30 00:24:00",585044,10.7,346.6,2.989,0.769,5.293,100.1016,-0.441,0.765,27.41,0,109.5,13.54,0.31,308.6
"2009-01-30 00:24:30",585045,10.72,346.7,2.941,0.811,5.03,100.1016,-0.441,0.762,27.44,0,109.5,13.54,0.31,308.7
"2009-01-30 00:25:00",585046,10.51,347.7,3.526,0.796,4.94,100.1019,-0.44,0.769,27.5,0,109.5,13.54,0.31,309.7
"2009-01-30 00:25:30",585047,10.65,348,2.994,0.746,4.953,100.1019,-0.44,0.756,27.54,0,109.5,13.54,0.31,310.0
"2009-01-30 00:26:00",585048,11.24,348,2.119,0.723,4.986,100.1019,-0.44,0.759,27.57,0,109.5,13.54,0.31,310.0
"2009-01-30 00:26:30",585049,11.07,349.1,3.425,0.684,4.949,100.1016,-0.441,0.76,27.59,0,109.5,13.54,0.31,311.1
"2009-01-30 00:27:00",585050,10.34,352,3.005,0.829,5.061,100.0945,-0.459,0.753,27.61,0,109.5,13.55,0.29,314.0
"2009-01-30 00:27:30",585051,10.31,352.9,3.583,0.734,5.03,100.0838,-0.486,0.752,27.71,0,109.5,13.55,0.26,314.9
"2009-01-30 00:28:00",585052,10.22,355.2,1.944,0.738,5.071,100.0812,-0.493,0.726,27.81,0,109.5,13.55,0.26,317.2
"2009-01-30 00:28:30",585053,10.15,353.2,3.917,0.649,4.923,100.0704,-0.52,0.714,27.86,0,109.5,13.55,0.23,315.2
"2009-01-30 00:29:00",585054,9.81,354.7,3.197,0.727,4.825,100.0679,-0.526,0.712,27.95,0,109.5,13.55,0.22,316.7
"2009-01-30 00:29:30",585055,9.23,352.8,3.336,0.853,4.76,100.0676,-0.527,0.705,28.09,0,109.5,13.55,0.22,314.8
"2009-01-30 00:30:00",585056,9.37,353.3,3.117,0.689,4.849,100.0642,-0.536,0.695,27.97,0,109.5,13.55,0.21,315.3
"2009-01-30 00:30:30",585057,9.04,356.7,3.258,0.816,4.658,100.0642,-0.536,0.703,27.85,0,109.5,13.55,0.21,318.7
"2009-01-30 00:31:00",585058,9.19,357.6,2.978,0.83,4.612,100.0634,-0.538,0.691,27.69,0,109.5,13.55,0.21,319.6
"2009-01-30 00:31:30",585059,9.32,355.6,3.779,0.723,4.499,100.0662,-0.531,0.689,27.57,0,109.5,13.55,0.22,317.6
"2009-01-30 00:32:00",585060,9.37,356.9,3.38,0.73,4.658,100.0736,-0.512,0.699,27.56,0,109.5,13.56,0.24,318.9
"2009-01-30 00:32:30",585061,8.85,357.6,2.786,0.788,4.489,100.0778,-0.501,0.691,27.58,0,109.5,13.56,0.25,319.6
"2009-01-30 00:33:00",585062,8.2,359.9,3.555,0.766,4.477,100.0792,-0.498,0.694,27.63,0,109.5,13.55,0.25,321.9
"2009-01-30 00:33:30",585063,8.44,359.9,3.939,0.953,4.199,100.0846,-0.484,0.676,27.64,0,109.5,13.55,0.27,321.9
"2009-01-30 00:34:00",585064,8.47,359,4.681,0.793,4.356,100.0866,-0.479,0.684,27.56,0,109.5,13.55,0.27,321.0
"2009-01-30 00:34:30",585065,7.958,1.165,6.255,1.222,4.166,100.0906,-0.469,0.697,27.56,0,109.5,13.55,0.28,323.2
"2009-01-30 00:35:00",585066,8.98,355.3,5.215,0.699,3.789,100.0917,-0.466,0.705,27.67,0,109.5,13.55,0.28,317.3
"2009-01-30 00:35:30",585067,7.073,0.958,6.452,1.383,3.496,100.0934,-0.461,0.644,27.69,0,109.5,13.55,0.29,323.0
"2009-01-30 00:36:00",585068,7.141,353.9,7.209,1.03,1.711,100.0937,-0.461,0.511,27.49,0,109.5,13.55,0.29,315.9
"2009-01-30 00:36:30",585069,7.722,351.3,6.558,0.979,2.562,100.0942,-0.459,0.668,27.62,0,109.5,13.55,0.29,313.3
"2009-01-30 00:37:00",585070,8.77,356.8,5.064,0.997,4.658,100.0959,-0.455,0.686,27.59,0,109.5,13.56,0.30,318.8
"2009-01-30 00:37:30",585071,8.75,358.5,3.452,0.495,5.307,100.0954,-0.456,0.721,27.58,0,109.5,13.56,0.29,320.5
"2009-01-30 00:38:00",585072,8.33,359.3,4.069,0.717,5.102,100.0965,-0.454,0.737,27.61,0,109.5,13.56,0.30,321.3
"2009-01-30 00:38:30",585073,8.2,3.373,3.843,0.993,5.045,100.1019,-0.44,0.728,27.58,0,109.5,13.56,0.31,325.4
"2009-01-30 00:39:00",585074,6.953,4.597,5.323,0.952,4.779,100.1112,-0.416,0.727,27.53,0,109.5,13.56,0.33,326.6
"2009-01-30 00:39:30",585075,6.788,5.633,4.514,1.052,4.458,100.1163,-0.403,0.748,27.53,0,109.5,13.56,0.35,327.6
"2009-01-30 00:40:00",585076,5.402,12.2,5.593,0.91,4.247,100.1175,-0.4,0.75,27.54,0,109.5,13.56,0.35,334.2
"2009-01-30 00:40:30",585077,5.101,12.27,9.8,0.965,2.834,100.1197,-0.394,0.637,27.42,0,109.4,13.57,0.36,334.3
"2009-01-30 00:41:00",585078,2.528,4.11,6.792,0.355,-0.409,100.1192,-0.396,0.465,27.26,0,109.5,13.6,0.35,326.1
"2009-01-30 00:41:30",585079,2.615,3.744,7.131,1.014,-0.213,100.1234,-0.385,0.511,27.28,0,109.5,13.57,0.37,325.7
"2009-01-30 00:42:00",585080,6.777,3.83,4.142,1.41,4.379,100.1308,-0.366,0.686,27.43,0,109.5,13.57,0.38,325.8
"2009-01-30 00:42:30",585081,7.827,0.447,4.843,0.866,5.587,100.1359,-0.353,0.784,27.49,0,109.5,13.57,0.40,322.4
"2009-01-30 00:43:00",585082,6.261,9.9,5.085,1.62,5.591,100.1359,-0.353,0.803,27.5,0,109.4,13.57,0.40,331.9
"2009-01-30 00:43:30",585083,5.408,10.15,6.22,0.881,4.925,100.1359,-0.353,0.808,27.56,0,109.5,13.57,0.40,332.1
"2009-01-30 00:44:00",585084,5.904,4.273,6.293,1.622,3.764,100.1359,-0.353,0.757,27.56,0,109.4,13.57,0.40,326.3
"2009-01-30 00:44:30",585085,5.567,0.48,8.25,0.723,1.981,100.1353,-0.355,0.599,27.47,0,109.5,13.57,0.40,322.5
"2009-01-30 00:45:00",585086,7.189,353.6,6.722,1.181,1.522,100.1285,-0.372,0.697,27.62,0,109.5,13.57,0.38,315.6
"2009-01-30 00:45:30",585087,6.764,4.054,7.186,1.303,3.95,100.1197,-0.394,0.735,27.64,0,109.5,13.57,0.36,326.1
"2009-01-30 00:46:00",585088,5.923,8.52,9.7,1.467,5.092,100.1158,-0.404,0.79,27.67,0,109.5,13.58,0.35,330.5
"2009-01-30 00:46:30",585089,6.761,0.997,7.012,0.987,4.994,100.1115,-0.415,0.769,27.74,0,109.5,13.58,0.34,323.0
"2009-01-30 00:47:00",585090,7.284,355.9,4.795,0.838,4.782,100.1036,-0.435,0.788,27.82,0,109.4,13.58,0.32,317.9
"2009-01-30 00:47:30",585091,5.749,0.366,6.285,1.871,3.454,100.1019,-0.44,0.692,27.74,0,109.4,13.58,0.31,322.4
"2009-01-30 00:48:00",585092,5.838,350,9.1,1.097,1.769,100.1019,-0.44,0.655,27.75,0,109.5,13.58,0.31,312.0
"2009-01-30 00:48:30",585093,6.053,357.3,7.306,1.527,2.326,100.0985,-0.448,0.561,27.69,0,109.5,13.58,0.30,319.3
"2009-01-30 00:49:00",585094,5.523,0.303,6.499,1.272,3.717,100.094,-0.46,0.663,27.81,0,109.5,13.58,0.29,322.3
"2009-01-30 00:49:30",585095,6.302,356.2,5.541,0.883,4.259,100.0852,-0.482,0.727,27.88,0,109.5,13.58,0.27,318.2
"2009-01-30 00:50:00",585096,6.309,357.2,7.49,1.005,4.097,100.0781,-0.5,0.65,27.88,0,109.4,13.57,0.25,319.2
"2009-01-30 00:50:30",585097,6.129,10.2,13.36,0.941,3.621,100.0685,-0.525,0.647,27.81,0,109.4,13.57,0.23,332.2
"2009-01-30 00:51:00",585098,4.726,21.35,5.173,1.205,1.853,100.0679,-0.526,0.519,27.69,0,109.4,13.57,0.22,343.4
"2009-01-30 00:51:30",585099,5.157,4.101,9.38,1.502,2.28,100.0682,-0.526,0.657,27.83,0,109.4,13.57,0.22,326.1
"2009-01-30 00:52:00",585100,5.608,3.387,6.606,1.177,3.455,100.0679,-0.526,0.618,27.8,0,109.4,13.57,0.22,325.4
"2009-01-30 00:52:30",585101,6.068,0.193,7.495,1.477,3.742,100.0688,-0.524,0.641,27.86,0,109.4,13.57,0.23,322.2
"2009-01-30 00:53:00",585102,7.413,353.7,6.864,1.06,4.233,100.0727,-0.514,0.636,27.88,0,109.5,13.58,0.24,315.7
"2009-01-30 00:53:30",585103,7.702,353.4,6.537,1.016,3.578,100.0804,-0.495,0.631,27.9,0,109.5,13.58,0.26,315.4
"2009-01-30 00:54:00",585104,6.722,357.2,5.93,1.028,4.46,100.0852,-0.482,0.705,27.92,0,109.5,13.58,0.27,319.2
"2009-01-30 00:54:30",585105,6.788,351.8,6.294,0.821,4.595,100.0869,-0.478,0.709,27.96,0,109.5,13.58,0.27,313.8
"2009-01-30 00:55:00",585106,6.286,358.9,6.598,0.624,4.529,100.1025,-0.438,0.726,27.92,0,109.5,13.59,0.31,320.9
"2009-01-30 00:55:30",585107,4.513,6.234,7.731,1.309,3.445,100.1039,-0.435,0.676,27.83,0,109.5,13.59,0.32,328.2
"2009-01-30 00:56:00",585108,5.146,350,6.232,0.564,-0.284,100.1073,-0.426,0.508,27.7,0,109.5,13.59,0.32,312.0
"2009-01-30 00:56:30",585109,6.254,343.8,6.022,1.184,1.201,100.1064,-0.428,0.533,27.72,0,109.5,13.59,0.32,305.8
"2009-01-30 00:57:00",585110,6.849,349.2,9.02,0.993,4.174,100.1045,-0.433,0.692,27.88,0,109.4,13.59,0.32,311.2
"2009-01-30 00:57:30",585111,7.126,351.7,5.509,0.835,4.852,100.0994,-0.446,0.737,27.9,0,109.5,13.59,0.30,313.7
"2009-01-30 00:58:00",585112,6.681,355.1,4.176,0.772,5.099,100.0948,-0.458,0.74,27.86,0,109.5,13.59,0.29,317.1
"2009-01-30 00:58:30",585113,5.724,2.815,4.645,0.921,4.857,100.0875,-0.477,0.726,27.9,0,109.5,13.59,0.27,324.8
"2009-01-30 00:59:00",585114,5.273,7.754,3.784,0.962,4.331,100.0886,-0.474,0.713,27.94,0,109.5,13.59,0.28,329.8
"2009-01-30 00:59:30",585115,4.92,5.197,11.74,1.293,2.763,100.0886,-0.474,0.569,27.78,0,109.5,13.59,0.28,327.2
"2009-01-30 01:00:00",585116,3.758,350.9,2.151,0.348,-0.589,100.0892,-0.472,0.411,27.69,0,109.5,13.62,0.28,312.9
"2009-01-30 01:00:30",585117,4.308,356.2,8.67,1.232,0.845,100.0886,-0.474,0.42,27.74,0,109.5,13.59,0.28,318.2
"2009-01-30 01:01:00",585118,6.431,356.2,6.024,1.088,3.964,100.09,-0.47,0.628,27.98,0,109.4,13.6,0.28,318.2
"2009-01-30 01:01:30",585119,4.713,8.48,9.78,0.982,5.063,100.0923,-0.464,0.715,28.04,0,109.5,13.6,0.29,330.5
"2009-01-30 01:02:00",585120,6.604,358.3,5.719,0.729,4.945,100.0923,-0.464,0.69,28.02,0,109.4,13.6,0.29,320.3
"2009-01-30 01:02:30",585121,6.189,347.4,3.68,0.947,4.477,100.0869,-0.478,0.704,28.08,0,109.4,13.6,0.27,309.4
"2009-01-30 01:03:00",585122,4.653,355.6,6.658,1.097,2.611,100.0849,-0.483,0.52,27.99,0,109.4,13.6,0.27,317.6
"2009-01-30 01:03:30",585123,4.392,346.7,3.752,0.69,-0.233,100.0838,-0.486,0.386,27.95,0,109.4,13.6,0.26,308.7
"2009-01-30 01:04:00",585124,5.386,347,4.515,1.109,2.127,100.0776,-0.502,0.532,28.13,0,109.4,13.6,0.25,309.0
"2009-01-30 01:04:30",585125,6.495,344,6.138,0.887,4.637,100.0756,-0.507,0.68,28.32,0,109.4,13.6,0.24,306.0
"2009-01-30 01:05:00",585126,4.846,357.8,13.66,1.14,5.177,100.0745,-0.51,0.678,28.31,0,109.4,13.6,0.24,319.8
"2009-01-30 01:05:30",585127,5.231,2.549,5.118,0.949,4.851,100.0759,-0.506,0.682,28.22,0,109.4,13.6,0.24,324.5
"2009-01-30 01:06:00",585128,4.707,353.4,6.65,1.424,2.529,100.0745,-0.51,0.572,28.04,0,109.4,13.6,0.24,315.4
"2009-01-30 01:06:30",585129,4.641,347.9,8.04,1.051,1.416,100.0665,-0.53,0.517,28.06,0,109.4,13.6,0.22,309.9
"2009-01-30 01:07:00",585130,4.396,342.7,7.623,0.78,0.292,100.068,-0.526,0.413,27.98,0,109.4,13.6,0.22,304.7
"2009-01-30 01:07:30",585131,6.01,352,5.777,0.999,4.268,100.0668,-0.529,0.62,28.29,0,109.4,13.6,0.22,314.0
"2009-01-30 01:08:00",585132,6.809,351.7,4.887,0.742,4.942,100.0674,-0.528,0.664,28.45,0,109.4,13.6,0.22,313.7
"2009-01-30 01:08:30",585133,7.505,349.2,4.539,0.744,4.993,100.068,-0.526,0.633,28.56,0,109.4,13.6,0.22,311.2
"2009-01-30 01:09:00",585134,6.865,346.3,5.077,0.7,4.361,100.0677,-0.527,0.606,28.5,0,109.4,13.6,0.22,308.3
"2009-01-30 01:09:30",585135,5.384,345.1,6.097,1.331,2.746,100.068,-0.526,0.584,28.45,0,109.4,13.59,0.22,307.1
"2009-01-30 01:10:00",585136,4.913,348.7,4.19,1.339,2.14,100.068,-0.526,0.437,28.21,0,109.4,13.6,0.22,310.7
"2009-01-30 01:10:30",585137,3.38,344.3,2.275,0.204,0.093,100.068,-0.526,0.445,28.2,0,109.4,13.63,0.22,306.3
"2009-01-30 01:11:00",585138,4.754,346.6,6.68,1.156,3.282,100.068,-0.526,0.605,28.38,0,109.4,13.6,0.22,308.6
"2009-01-30 01:11:30",585139,5.259,356,5.444,0.962,4.337,100.068,-0.526,0.629,28.44,0,109.4,13.6,0.22,318.0
"2009-01-30 01:12:00",585140,5.535,351.3,5.872,1.071,3.437,100.068,-0.526,0.584,28.44,0,109.4,13.61,0.22,313.3
"2009-01-30 01:12:30",585141,5.825,351.2,7.23,1.018,3.473,100.068,-0.526,0.602,28.48,0,109.4,13.61,0.22,313.2
"2009-01-30 01:13:00",585142,6.607,355.8,4.758,0.622,3.976,100.068,-0.526,0.493,28.32,0,109.4,13.61,0.22,317.8
"2009-01-30 01:13:30",585143,6.075,357.4,5.192,1.258,2.821,100.068,-0.526,0.556,28.39,0,109.4,13.61,0.22,319.4
"2009-01-30 01:14:00",585144,5.489,355.5,7.462,1.04,3.307,100.068,-0.526,0.579,28.42,0,109.4,13.61,0.22,317.5
"2009-01-30 01:14:30",585145,5.586,358,5.373,1.264,3.784,100.068,-0.526,0.637,28.44,0,109.4,13.61,0.22,320.0
"2009-01-30 01:15:00",585146,4.549,3.241,7.7,1.404,3.621,100.0589,-0.549,0.543,28.4,0,109.4,13.61,0.20,325.2
"2009-01-30 01:15:30",585147,4.405,0.935,11.42,1.268,2.946,100.051,-0.57,0.503,28.41,0,109.4,13.61,0.18,322.9
"2009-01-30 01:16:00",585148,2.934,18.3,8.25,1.105,2.068,100.0464,-0.581,0.528,28.41,0,109.4,13.61,0.17,340.3
"2009-01-30 01:16:30",585149,4.248,359.2,7.466,1.566,1.954,100.0365,-0.606,0.499,28.46,0,109.4,13.61,0.14,321.2
"2009-01-30 01:17:00",585150,5.972,356.5,6.466,0.805,3.65,100.036,-0.608,0.555,28.65,0,109.4,13.61,0.14,318.5
"2009-01-30 01:17:30",585151,6.196,352.1,5.448,1.116,3.552,100.0354,-0.609,0.585,28.64,0,109.4,13.62,0.14,314.1
"2009-01-30 01:18:00",585152,6.022,358.3,5.278,0.924,3.992,100.0345,-0.612,0.559,28.65,0,109.4,13.62,0.14,320.3
"2009-01-30 01:18:30",585153,4.871,0.67,9.54,0.991,2.995,100.034,-0.613,0.519,28.65,0,109.4,13.62,0.14,322.7
"2009-01-30 01:19:00",585154,4.838,1.755,7.08,1.263,3.026,100.034,-0.613,0.523,28.65,0,109.4,13.62,0.14,323.8
"2009-01-30 01:19:30",585155,4.185,360,7.811,1.214,1.959,100.034,-0.613,0.499,28.61,0,109.4,13.62,0.14,322.0
"2009-01-30 01:20:00",585156,4.602,4.139,8.18,1.095,2.999,100.0314,-0.619,0.456,28.62,0,109.4,13.62,0.13,326.1
"2009-01-30 01:20:30",585157,5.041,355.5,5.97,1.694,2.28,100.026,-0.633,0.437,28.67,0,109.3,13.62,0.12,317.5
"2009-01-30 01:21:00",585158,5.287,352.3,7.049,1.335,2.757,100.0311,-0.62,0.462,28.79,0,109.4,13.62,0.13,314.3
"2009-01-30 01:21:30",585159,5.938,359.2,6.115,0.775,4.152,100.0323,-0.617,0.468,28.79,0,109.4,13.62,0.13,321.2
"2009-01-30 01:22:00",585160,5.121,355.5,8.56,1.508,3.093,100.0337,-0.614,0.515,28.8,0,109.4,13.61,0.14,317.5
"2009-01-30 01:22:30",585161,4.62,353,7.318,1.291,2.704,100.0314,-0.619,0.492,28.74,0,109.4,13.61,0.13,315.0
"2009-01-30 01:23:00",585162,5.621,347.8,6.37,1.173,2.112,100.0337,-0.614,0.341,28.69,0,109.4,13.61,0.14,309.8
"2009-01-30 01:23:30",585163,5.114,345.7,5.827,1.466,1.648,100.0334,-0.614,0.411,28.82,0,109.4,13.61,0.14,307.7
"2009-01-30 01:24:00",585164,5.975,356.2,4.594,1.206,3.836,100.032,-0.618,0.484,28.9,0,109.4,13.61,0.13,318.2
"2009-01-30 01:24:30",585165,6.53,353.7,5.316,1.084,3.949,100.0314,-0.619,0.568,29.01,0,109.4,13.61,0.13,315.7
"2009-01-30 01:25:00",585166,6.711,357.4,3.491,0.863,4.41,100.0326,-0.617,0.576,29.03,0,109.4,13.61,0.13,319.4
"2009-01-30 01:25:30",585167,6.451,354,4.908,1.102,3.376,100.0385,-0.601,0.5,29,0,109.4,13.61,0.15,316.0
"2009-01-30 01:26:00",585168,5.605,351.9,6.406,1.081,1.628,100.0447,-0.586,0.369,28.9,0,109.4,13.61,0.16,313.9
"2009-01-30 01:26:30",585169,5.914,354.7,5.365,1.307,2.594,100.0476,-0.578,0.507,29.01,0,109.4,13.61,0.17,316.7
"2009-01-30 01:27:00",585170,6.502,353.3,5.622,1.231,3.392,100.0467,-0.58,0.537,29.03,0,109.4,13.62,0.17,315.3
"2009-01-30 01:27:30",585171,7.057,353.6,5.758,0.917,4.473,100.0498,-0.573,0.58,29.12,0,109.4,13.62,0.18,315.6
"2009-01-30 01:28:00",585172,6.983,355.5,5.054,0.85,4.558,100.0496,-0.573,0.609,29.09,0,109.4,13.62,0.18,317.5
"2009-01-30 01:28:30",585173,6.748,357.7,2.67,0.757,4.536,100.0493,-0.574,0.612,29.08,0,109.4,13.62,0.18,319.7
"2009-01-30 01:29:00",585174,6.921,356.7,3.462,0.713,4.665,100.0501,-0.572,0.615,29.06,0,109.4,13.62,0.18,318.7
"2009-01-30 01:29:30",585175,6.05,350.6,8.43,1.445,2.202,100.0521,-0.567,0.433,28.95,0,109.4,13.62,0.18,312.6
"2009-01-30 01:30:00",585176,5.847,347.4,6.681,1.188,1.46,100.0682,-0.526,0.485,29.02,0,109.4,13.62,0.22,309.4
"2009-01-30 01:30:30",585177,6.968,349.9,6.085,1.148,3.482,100.0765,-0.505,0.549,29,0,109.4,13.62,0.25,311.9
"2009-01-30 01:31:00",585178,7.151,356.4,5.031,0.931,4.766,100.0855,-0.482,0.669,29.07,0,109.4,13.62,0.27,318.4
"2009-01-30 01:31:30",585179,7.172,354.8,5.72,0.542,5.153,100.0833,-0.487,0.656,29,0,109.4,13.62,0.26,316.8
"2009-01-30 01:32:00",585180,7.434,351.9,4.366,0.921,4.463,100.0852,-0.482,0.647,29.02,0,109.4,13.62,0.27,313.9
"2009-01-30 01:32:30",585181,6.806,356,9.9,1.11,4.104,100.081,-0.493,0.671,29.02,0,109.4,13.62,0.26,318.0
"2009-01-30 01:33:00",585182,7.022,350.3,5.812,1.051,3.128,100.0762,-0.505,0.544,28.87,0,109.4,13.62,0.24,312.3
"2009-01-30 01:33:30",585183,6.503,348.8,7.537,1.19,2.216,100.0864,-0.479,0.558,28.99,0,109.4,13.62,0.27,310.8
"2009-01-30 01:34:00",585184,7.295,351,4.727,1.015,3.953,100.0884,-0.474,0.609,29.02,0,109.5,13.62,0.28,313.0
"2009-01-30 01:34:30",585185,7.129,351.3,8.19,1.22,3.923,100.0892,-0.472,0.648,29.01,0,109.4,13.62,0.28,313.3
"2009-01-30 01:35:00",585186,5.923,1.884,5.99,1.275,4.418,100.0886,-0.474,0.639,28.9,0,109.4,13.62,0.28,323.9
"2009-01-30 01:35:30",585187,7.097,357,4.659,0.848,4.755,100.0881,-0.475,0.648,28.95,0,109.4,13.62,0.28,319.0
"2009-01-30 01:36:00",585188,7.485,351.3,5.457,0.539,4.552,100.0903,-0.469,0.664,29.1,0,109.4,13.62,0.28,313.3
"2009-01-30 01:36:30",585189,6.906,357.1,6.493,1.054,4.272,100.0912,-0.467,0.63,29.1,0,109.4,13.62,0.28,319.1
"2009-01-30 01:37:00",585190,5.819,346.2,7.321,1.115,1.667,100.1003,-0.444,0.515,28.95,0,109.4,13.62,0.31,308.2
"2009-01-30 01:37:30",585191,6.274,341.6,6.341,1.225,2.282,100.1065,-0.428,0.621,28.97,0,109.4,13.62,0.32,303.6
"2009-01-30 01:38:00",585192,6.622,348.7,6.874,1.291,3.585,100.1059,-0.43,0.658,28.9,0,109.4,13.62,0.32,310.7
"2009-01-30 01:38:30",585193,5.893,358,5.94,1.039,4.751,100.1028,-0.437,0.664,28.87,0,109.4,13.62,0.31,320.0
"2009-01-30 01:39:00",585194,5.215,353.2,7.17,1.207,4.303,100.0952,-0.457,0.679,28.79,0,109.4,13.62,0.29,315.2
"2009-01-30 01:39:30",585195,5.072,352.7,5.988,0.975,3.99,100.0946,-0.458,0.673,28.79,0,109.4,13.62,0.29,314.7
"2009-01-30 01:40:00",585196,4.155,350.1,6.593,1.128,1.434,100.0915,-0.466,0.46,28.61,0,109.4,13.62,0.28,312.1
"2009-01-30 01:40:30",585197,4.751,341,7.715,0.902,1.754,100.0779,-0.501,0.485,28.71,0,109.4,13.62,0.25,303.0
"2009-01-30 01:41:00",585198,5.472,343.8,6.764,1.29,2.653,100.0827,-0.489,0.584,28.89,0,109.4,13.62,0.26,305.8
"2009-01-30 01:41:30",585199,6.204,348.7,5.468,0.998,3.862,100.0841,-0.485,0.605,28.93,0,109.4,13.62,0.27,310.7
"2009-01-30 01:42:00",585200,6.27,352.4,4.658,0.787,4.885,100.0889,-0.473,0.697,29.05,0,109.4,13.62,0.28,314.4
"2009-01-30 01:42:30",585201,6.218,355.5,2.641,0.747,4.571,100.0906,-0.469,0.679,29.04,0,109.4,13.62,0.28,317.5
"2009-01-30 01:43:00",585202,5.591,343.7,7.726,1.246,2.848,100.0915,-0.466,0.527,28.87,0,109.4,13.62,0.28,305.7
"2009-01-30 01:43:30",585203,4.809,337.4,6.769,1.085,1.122,100.0943,-0.459,0.541,28.87,0,109.4,13.63,0.29,299.4
"2009-01-30 01:44:00",585204,7.132,347.4,4.967,1.028,3.858,100.0946,-0.458,0.556,28.96,0,109.4,13.63,0.29,309.4
"2009-01-30 01:44:30",585205,6.833,344.2,5.317,1.044,4.368,100.0983,-0.449,0.693,29.17,0,109.4,13.63,0.30,306.2
"2009-01-30 01:45:00",585206,7.382,342.6,4.886,0.744,5.211,100.1079,-0.424,0.713,29.23,0,109.4,13.63,0.33,304.6
"2009-01-30 01:45:30",585207,7.426,343.5,6.602,0.833,5.311,100.1272,-0.375,0.754,29.13,0,109.4,13.63,0.38,305.5
"2009-01-30 01:46:00",585208,7.228,351.9,5.136,0.75,4.694,100.1303,-0.367,0.766,29.06,0,109.4,13.63,0.38,313.9
"2009-01-30 01:46:30",585209,6.432,350.4,5.045,0.878,4.56,100.1309,-0.366,0.77,28.95,0,109.4,13.63,0.38,312.4
"2009-01-30 01:47:00",585210,6.262,348.9,5.197,0.561,3.969,100.1277,-0.374,0.768,28.86,0,109.4,13.63,0.38,310.9
"2009-01-30 01:47:30",585211,4.737,338.3,8.43,1.251,0.682,100.126,-0.378,0.557,28.59,0,109.4,13.63,0.37,300.3
"2009-01-30 01:48:00",585212,3.662,344.2,3.649,0.2,-0.476,100.1122,-0.414,0.466,28.5,0,109.4,13.66,0.34,306.2